| time (UTC) | temp F | wind direction | speed MPH | gust MPH | rain 1hr in | rain 24hr in | rain mn in | humidity % | barometer mb |
| 20260505234701 | 55 | 218 | 1.0 | 4.0 | 0.00 | 0.25 | 0.00 | 84 | 1006.2 |
| 20260505234204 | 55 | 184 | 1.0 | 6.0 | 0.00 | 0.25 | 0.00 | 85 | 1006.2 |
| 20260505233658 | 55 | 224 | 1.0 | 4.0 | 0.00 | 0.25 | 0.00 | 85 | 1006.2 |
| 20260505233201 | 55 | 279 | 0.0 | 3.0 | 0.00 | 0.25 | 0.00 | 85 | 1006.2 |
| 20260505232704 | 55 | 318 | 0.0 | 3.0 | 0.00 | 0.25 | 0.00 | 84 | 1006.2 |
| 20260505232207 | 56 | 241 | 1.0 | 3.0 | 0.00 | 0.25 | 0.00 | 84 | 1006.2 |
| 20260505231701 | 56 | 251 | 0.0 | 3.0 | 0.00 | 0.25 | 0.00 | 85 | 1006.2 |
| 20260505231201 | 56 | 220 | 0.0 | 5.0 | 0.00 | 0.25 | 0.00 | 85 | 1006.2 |
| 20260505230704 | 56 | 260 | 0.0 | 6.0 | 0.00 | 0.25 | 0.00 | 85 | 1006.2 |
| 20260505230201 | 56 | 170 | 2.0 | 5.0 | 0.00 | 0.25 | 0.00 | 85 | 1006.2 |
| 20260505225658 | 56 | 165 | 1.0 | 4.0 | 0.00 | 0.25 | 0.00 | 85 | 1006.2 |
| 20260505225201 | 56 | 183 | 1.0 | 5.0 | 0.00 | 0.25 | 0.00 | 86 | 1006.2 |
| 20260505224701 | 56 | 200 | 1.0 | 5.0 | 0.00 | 0.25 | 0.00 | 86 | 1006.2 |
| 20260505224158 | 56 | 195 | 0.0 | 6.0 | 0.00 | 0.25 | 0.00 | 86 | 1006.2 |
| 20260505223658 | 56 | 187 | 2.0 | 6.0 | 0.00 | 0.25 | 0.00 | 86 | 1006.2 |
| 20260505223204 | 56 | 202 | 1.0 | 6.0 | 0.00 | 0.25 | 0.00 | 86 | 1006.2 |
| 20260505222704 | 56 | 193 | 2.0 | 6.0 | 0.00 | 0.25 | 0.00 | 86 | 1006.2 |
| 20260505222207 | 56 | 170 | 0.0 | 5.0 | 0.00 | 0.25 | 0.00 | 85 | 1006.2 |
| 20260505221658 | 56 | 182 | 2.0 | 6.0 | 0.00 | 0.25 | 0.00 | 85 | 1006.2 |
| 20260505221158 | 56 | 183 | 2.0 | 6.0 | 0.00 | 0.25 | 0.00 | 85 | 1006.2 |
| 20260505220658 | 56 | 181 | 2.0 | 6.0 | 0.00 | 0.25 | 0.00 | 85 | 1006.2 |
| 20260505220201 | 56 | 329 | 0.0 | 2.0 | 0.00 | 0.25 | 0.00 | 84 | 1005.8 |
| 20260505215658 | 56 | 194 | 0.0 | 2.0 | 0.00 | 0.25 | 0.00 | 84 | 1005.8 |
| 20260505215204 | 56 | 171 | 0.0 | 4.0 | 0.00 | 0.25 | 0.00 | 84 | 1006.2 |
| 20260505214707 | 56 | 171 | 1.0 | 4.0 | 0.00 | 0.25 | 0.00 | 84 | 1006.2 |
| 20260505214201 | 56 | 162 | 1.0 | 2.0 | 0.00 | 0.25 | 0.00 | 85 | 1005.8 |
| 20260505213704 | 56 | 218 | 0.0 | 2.0 | 0.00 | 0.25 | 0.00 | 85 | 1006.2 |
| 20260505213158 | 56 | 278 | 0.0 | 2.0 | 0.00 | 0.25 | 0.00 | 85 | 1006.2 |
| 20260505212658 | 56 | 199 | 0.0 | 3.0 | 0.00 | 0.25 | 0.00 | 85 | 1006.2 |
| 20260505212158 | 56 | 251 | 1.0 | 2.0 | 0.00 | 0.25 | 0.00 | 85 | 1006.2 |
| 20260505211658 | 56 | 219 | 1.0 | 2.0 | 0.00 | 0.25 | 0.00 | 85 | 1006.2 |
| 20260505211201 | 56 | 180 | 1.0 | 4.0 | 0.00 | 0.25 | 0.00 | 85 | 1006.2 |
| 20260505210658 | 56 | 174 | 0.0 | 6.0 | 0.00 | 0.25 | 0.00 | 85 | 1006.6 |
| 20260505210158 | 56 | 184 | 2.0 | 6.0 | 0.00 | 0.25 | 0.00 | 86 | 1006.2 |
| 20260505205658 | 56 | 179 | 1.0 | 3.0 | 0.00 | 0.25 | 0.00 | 86 | 1006.2 |
| 20260505205204 | 56 | 328 | 0.0 | 1.0 | 0.00 | 0.25 | 0.00 | 86 | 1006.2 |
| 20260505204658 | 56 | 217 | 0.0 | 1.0 | 0.00 | 0.25 | 0.00 | 86 | 1006.2 |
| 20260505204158 | 56 | 206 | 0.0 | 3.0 | 0.00 | 0.25 | 0.00 | 86 | 1006.2 |
| 20260505203658 | 56 | 284 | 1.0 | 3.0 | 0.00 | 0.25 | 0.00 | 86 | 1006.2 |
| 20260505203158 | 56 | 182 | 0.0 | 4.0 | 0.00 | 0.25 | 0.00 | 86 | 1006.2 |
| 20260505202658 | 56 | 286 | 0.0 | 2.0 | 0.00 | 0.25 | 0.00 | 86 | 1005.8 |
| 20260505202201 | 56 | 200 | 1.0 | 6.0 | 0.00 | 0.25 | 0.00 | 86 | 1005.8 |
| 20260505201658 | 56 | 241 | 0.0 | 3.0 | 0.00 | 0.25 | 0.00 | 86 | 1005.8 |
| 20260505201204 | 56 | 221 | 0.0 | 4.0 | 0.00 | 0.25 | 0.00 | 86 | 1005.8 |
| 20260505200701 | 56 | 185 | 2.0 | 5.0 | 0.00 | 0.25 | 0.00 | 86 | 1005.8 |
| 20260505200201 | 56 | 249 | 1.0 | 5.0 | 0.00 | 0.25 | 0.00 | 86 | 1005.8 |
| 20260505195701 | 56 | 270 | 2.0 | 6.0 | 0.00 | 0.25 | 0.00 | 86 | 1005.8 |
| 20260505195201 | 56 | 225 | 3.0 | 5.0 | 0.00 | 0.25 | 0.00 | 86 | 1005.8 |
| 20260505194704 | 56 | 260 | 1.0 | 6.0 | 0.00 | 0.25 | 0.00 | 86 | 1005.8 |
| 20260505194158 | 56 | 272 | 1.0 | 5.0 | 0.00 | 0.25 | 0.00 | 86 | 1005.8 |
| 20260505193701 | 56 | 225 | 1.0 | 5.0 | 0.00 | 0.25 | 0.00 | 86 | 1005.5 |
| 20260505193201 | 56 | 266 | 1.0 | 3.0 | 0.00 | 0.25 | 0.00 | 86 | 1005.5 |
| 20260505192701 | 56 | 274 | 0.0 | 2.0 | 0.00 | 0.25 | 0.00 | 86 | 1005.8 |
| 20260505192158 | 56 | 270 | 1.0 | 3.0 | 0.00 | 0.25 | 0.00 | 86 | 1005.5 |
| 20260505191658 | 56 | 284 | 1.0 | 2.0 | 0.00 | 0.25 | 0.00 | 86 | 1005.5 |
| 20260505191158 | 56 | 327 | 1.0 | 2.0 | 0.00 | 0.25 | 0.00 | 86 | 1005.5 |
| 20260505190658 | 56 | 334 | 0.0 | 3.0 | 0.00 | 0.25 | 0.00 | 86 | 1005.8 |
| 20260505190158 | 56 | 287 | 1.0 | 4.0 | 0.00 | 0.25 | 0.00 | 86 | 1005.8 |
| 20260505185701 | 56 | 335 | 1.0 | 4.0 | 0.00 | 0.25 | 0.00 | 86 | 1005.8 |
| 20260505185201 | 56 | 327 | 1.0 | 4.0 | 0.00 | 0.25 | 0.00 | 86 | 1005.8 |
| 20260505184701 | 56 | 334 | 1.0 | 3.0 | 0.00 | 0.25 | 0.00 | 85 | 1005.8 |
| 20260505184204 | 56 | 321 | 1.0 | 2.0 | 0.00 | 0.25 | 0.00 | 86 | 1005.8 |
| 20260505183704 | 56 | 335 | 1.0 | 2.0 | 0.01 | 0.25 | 0.00 | 86 | 1005.8 |
| 20260505183159 | 56 | 319 | 1.0 | 3.0 | 0.02 | 0.25 | 0.00 | 86 | 1005.8 |
| 20260505182658 | 56 | 297 | 0.0 | 4.0 | 0.03 | 0.25 | 0.00 | 86 | 1005.8 |
| 20260505182158 | 56 | 330 | 1.0 | 4.0 | 0.04 | 0.25 | 0.00 | 86 | 1005.8 |
| 20260505181701 | 57 | 335 | 1.0 | 3.0 | 0.06 | 0.25 | 0.00 | 86 | 1005.8 |
| 20260505181201 | 56 | 333 | 0.0 | 3.0 | 0.08 | 0.25 | 0.00 | 86 | 1005.8 |
| 20260505180658 | 57 | 302 | 0.0 | 3.0 | 0.14 | 0.25 | 0.00 | 86 | 1005.8 |
| 20260505180158 | 57 | 326 | 1.0 | 4.0 | 0.19 | 0.25 | 0.00 | 87 | 1005.8 |
| 20260505175658 | 57 | 310 | 2.0 | 5.0 | 0.22 | 0.24 | 0.00 | 86 | 1005.8 |
| 20260505175207 | 57 | 304 | 2.0 | 6.0 | 0.23 | 0.24 | 0.00 | 87 | 1005.8 |
| 20260505174704 | 57 | 258 | 0.0 | 7.0 | 0.23 | 0.24 | 0.00 | 87 | 1005.8 |
| 20260505174201 | 57 | 260 | 2.0 | 5.0 | 0.22 | 0.24 | 0.00 | 87 | 1005.8 |
| 20260505173658 | 57 | 204 | 2.0 | 8.0 | 0.22 | 0.23 | 0.00 | 87 | 1005.8 |
| 20260505173201 | 57 | 246 | 3.0 | 9.0 | 0.21 | 0.22 | 0.00 | 86 | 1005.8 |
| 20260505172701 | 57 | 284 | 3.0 | 12.0 | 0.19 | 0.21 | 0.00 | 86 | 1005.5 |
| 20260505172204 | 57 | 267 | 3.0 | 12.0 | 0.18 | 0.20 | 0.00 | 86 | 1005.5 |
| 20260505171658 | 57 | 256 | 4.0 | 14.0 | 0.16 | 0.18 | 0.00 | 85 | 1005.1 |
| 20260505171201 | 58 | 243 | 4.0 | 17.0 | 0.15 | 0.16 | 0.00 | 84 | 1005.1 |
| 20260505170704 | 58 | 236 | 5.0 | 14.0 | 0.09 | 0.10 | 0.00 | 81 | 1005.1 |
| 20260505170201 | 60 | 244 | 4.0 | 16.0 | 0.04 | 0.05 | 0.00 | 76 | 1005.1 |
| 20260505165704 | 62 | 255 | 6.0 | 22.0 | 0.00 | 0.02 | 0.00 | 68 | 1005.1 |
| 20260505165158 | 66 | 220 | 7.0 | 27.0 | 0.00 | 0.01 | 0.00 | 59 | 1004.8 |
| 20260505164658 | 68 | 177 | 5.0 | 7.0 | 0.00 | 0.01 | 0.00 | 54 | 1004.5 |
| 20260505164201 | 67 | 319 | 1.0 | 4.0 | 0.00 | 0.01 | 0.00 | 54 | 1003.7 |
| 20260505163701 | 67 | 66 | 1.0 | 5.0 | 0.00 | 0.01 | 0.00 | 54 | 1003.7 |
| 20260505163158 | 68 | 11 | 1.0 | 6.0 | 0.00 | 0.01 | 0.00 | 53 | 1003.7 |
| 20260505162701 | 68 | 43 | 0.0 | 5.0 | 0.00 | 0.01 | 0.00 | 51 | 1003.4 |
| 20260505162158 | 68 | 3 | 1.0 | 9.0 | 0.00 | 0.01 | 0.00 | 51 | 1003.4 |
| 20260505161704 | 68 | 340 | 3.0 | 9.0 | 0.00 | 0.01 | 0.00 | 49 | 1003.7 |
| 20260505161158 | 69 | 352 | 2.0 | 8.0 | 0.00 | 0.01 | 0.00 | 47 | 1004.1 |
| 20260505160704 | 69 | 326 | 2.0 | 12.0 | 0.00 | 0.01 | 0.00 | 47 | 1004.1 |
| 20260505160201 | 69 | 18 | 5.0 | 14.0 | 0.00 | 0.01 | 0.00 | 46 | 1004.1 |
| 20260505153158 | 70 | 351 | 4.0 | 13.0 | 0.00 | 0.01 | 0.00 | 46 | 1004.1 |
| 20260505152704 | 70 | 346 | 5.0 | 12.0 | 0.00 | 0.01 | 0.00 | 45 | 1004.1 |
| 20260505152207 | 70 | 350 | 4.0 | 11.0 | 0.00 | 0.01 | 0.00 | 44 | 1004.1 |
| 20260505151658 | 70 | 2 | 2.0 | 11.0 | 0.00 | 0.01 | 0.00 | 43 | 1004.1 |
| 20260505151201 | 71 | 336 | 4.0 | 11.0 | 0.00 | 0.01 | 0.00 | 42 | 1004.1 |
| 20260505150701 | 71 | 345 | 5.0 | 10.0 | 0.00 | 0.01 | 0.00 | 41 | 1004.1 |
| 20260505150158 | 71 | 321 | 1.0 | 10.0 | 0.00 | 0.01 | 0.00 | 42 | 1004.1 |
| 20260505140201 | 73 | 336 | 3.0 | 8.0 | 0.00 | 0.01 | 0.00 | 41 | 1004.5 |
| 20260505130158 | 76 | 60 | 1.0 | 5.0 | 0.00 | 0.01 | 0.00 | 32 | 1005.1 |
| 20260505124658 | 78 | 119 | 2.0 | 5.0 | 0.00 | 0.01 | 0.00 | 29 | 1005.1 |
| 20260505124205 | 77 | 90 | 2.0 | 5.0 | 0.00 | 0.01 | 0.00 | 28 | 1005.1 |
| 20260505123704 | 80 | 124 | 2.0 | 5.0 | 0.00 | 0.01 | 0.00 | 26 | 1005.1 |
| 20260505123207 | 78 | 126 | 2.0 | 6.0 | 0.00 | 0.01 | 0.00 | 28 | 1005.1 |
| 20260505122658 | 77 | 359 | 2.0 | 4.0 | 0.00 | 0.01 | 0.00 | 29 | 1005.5 |
| 20260505122158 | 78 | 182 | 3.0 | 6.0 | 0.00 | 0.01 | 0.00 | 30 | 1005.5 |
| 20260505121704 | 78 | 103 | 2.0 | 6.0 | 0.00 | 0.01 | 0.00 | 30 | 1005.5 |
| 20260505121201 | 76 | 344 | 1.0 | 6.0 | 0.00 | 0.01 | 0.00 | 30 | 1005.5 |
| 20260505120701 | 76 | 305 | 1.0 | 5.0 | 0.00 | 0.01 | 0.00 | 31 | 1005.5 |
| 20260505120158 | 78 | 333 | 1.0 | 5.0 | 0.00 | 0.01 | 0.00 | 30 | 1005.5 |
| 20260505115658 | 80 | 255 | 1.0 | 5.0 | 0.00 | 0.01 | 0.00 | 31 | 1005.8 |
| 20260505115158 | 78 | 258 | 1.0 | 5.0 | 0.00 | 0.01 | 0.00 | 32 | 1005.8 |
| 20260505114658 | 78 | 173 | 2.0 | 7.0 | 0.00 | 0.01 | 0.00 | 31 | 1005.8 |
| 20260505114159 | 77 | 133 | 2.0 | 8.0 | 0.00 | 0.01 | 0.00 | 32 | 1005.8 |
| 20260505113704 | 77 | 329 | 3.0 | 7.0 | 0.00 | 0.01 | 0.00 | 31 | 1005.8 |
| 20260505113201 | 79 | 229 | 2.0 | 5.0 | 0.00 | 0.01 | 0.00 | 30 | 1005.8 |
| 20260505112704 | 78 | 212 | 2.0 | 8.0 | 0.00 | 0.01 | 0.00 | 32 | 1005.8 |
| 20260505112204 | 78 | 266 | 2.0 | 6.0 | 0.00 | 0.01 | 0.00 | 31 | 1005.8 |
| 20260505111658 | 77 | 235 | 1.0 | 5.0 | 0.00 | 0.01 | 0.00 | 32 | 1005.8 |
| 20260505111201 | 77 | 293 | 2.0 | 6.0 | 0.00 | 0.01 | 0.00 | 32 | 1005.8 |
| 20260505110658 | 77 | 245 | 1.0 | 5.0 | 0.00 | 0.01 | 0.00 | 34 | 1006.2 |
| 20260505110201 | 76 | 278 | 1.0 | 5.0 | 0.00 | 0.01 | 0.00 | 33 | 1006.2 |
| 20260505102201 | 76 | 244 | 2.0 | 7.0 | 0.00 | 0.01 | 0.00 | 38 | 1006.6 |
| 20260505101707 | 75 | 292 | 2.0 | 9.0 | 0.00 | 0.01 | 0.00 | 39 | 1006.6 |
| 20260505101158 | 76 | 247 | 2.0 | 5.0 | 0.00 | 0.01 | 0.00 | 38 | 1006.6 |
| 20260505100704 | 75 | 228 | 1.0 | 9.0 | 0.00 | 0.01 | 0.00 | 42 | 1006.9 |
| 20260505100201 | 75 | 269 | 3.0 | 8.0 | 0.00 | 0.01 | 0.00 | 40 | 1006.9 |
| 20260505095704 | 74 | 317 | 4.0 | 7.0 | 0.00 | 0.01 | 0.00 | 39 | 1006.9 |
| 20260505095158 | 77 | 262 | 1.0 | 4.0 | 0.00 | 0.01 | 0.00 | 38 | 1006.9 |
| 20260505094704 | 76 | 162 | 1.0 | 7.0 | 0.00 | 0.01 | 0.00 | 39 | 1006.9 |
| 20260505094158 | 75 | 211 | 1.0 | 5.0 | 0.00 | 0.01 | 0.00 | 40 | 1006.9 |
| 20260505093701 | 75 | 260 | 2.0 | 5.0 | 0.00 | 0.01 | 0.00 | 40 | 1006.9 |
| 20260505093158 | 76 | 242 | 2.0 | 5.0 | 0.00 | 0.01 | 0.00 | 40 | 1007.2 |
| 20260505092658 | 73 | 282 | 0.0 | 6.0 | 0.00 | 0.01 | 0.00 | 44 | 1007.2 |
| 20260505092207 | 74 | 244 | 1.0 | 6.0 | 0.00 | 0.01 | 0.00 | 43 | 1007.2 |
| 20260505091701 | 73 | 293 | 2.0 | 6.0 | 0.00 | 0.01 | 0.00 | 43 | 1007.2 |
| 20260505091204 | 73 | 237 | 1.0 | 4.0 | 0.00 | 0.01 | 0.00 | 43 | 1007.2 |
| 20260505090658 | 73 | 253 | 1.0 | 6.0 | 0.00 | 0.01 | 0.00 | 43 | 1007.2 |
| 20260505090204 | 74 | 268 | 3.0 | 6.0 | 0.00 | 0.01 | 0.00 | 42 | 1007.6 |
| 20260505085701 | 73 | 178 | 0.0 | 3.0 | 0.00 | 0.01 | 0.00 | 43 | 1007.6 |
| 20260505085201 | 73 | 287 | 1.0 | 4.0 | 0.00 | 0.01 | 0.00 | 42 | 1007.6 |
| 20260505084701 | 74 | 303 | 1.0 | 6.0 | 0.00 | 0.01 | 0.00 | 42 | 1007.6 |
| 20260505084158 | 74 | 25 | 1.0 | 3.0 | 0.00 | 0.01 | 0.00 | 42 | 1007.6 |
| 20260505083701 | 73 | 339 | 1.0 | 3.0 | 0.00 | 0.01 | 0.00 | 44 | 1007.6 |
| 20260505083201 | 71 | 67 | 0.0 | 3.0 | 0.00 | 0.01 | 0.00 | 45 | 1007.6 |
| 20260505082658 | 69 | 134 | 0.0 | 3.0 | 0.00 | 0.01 | 0.00 | 48 | 1007.6 |
| 20260505082158 | 70 | 319 | 1.0 | 2.0 | 0.00 | 0.01 | 0.00 | 47 | 1007.6 |
| 20260505081704 | 70 | 221 | 0.0 | 4.0 | 0.00 | 0.01 | 0.00 | 47 | 1007.6 |
| 20260505081159 | 70 | 324 | 2.0 | 4.0 | 0.00 | 0.01 | 0.00 | 47 | 1007.6 |
| 20260505080701 | 69 | 287 | 1.0 | 4.0 | 0.00 | 0.01 | 0.00 | 48 | 1007.9 |
| 20260505080158 | 69 | 346 | 1.0 | 2.0 | 0.00 | 0.01 | 0.00 | 50 | 1007.9 |
| 20260505075701 | 69 | 29 | 1.0 | 4.0 | 0.00 | 0.01 | 0.00 | 47 | 1007.9 |
| 20260505075158 | 69 | 297 | 1.0 | 3.0 | 0.00 | 0.01 | 0.00 | 49 | 1007.9 |
| 20260505074701 | 69 | 335 | 1.0 | 3.0 | 0.00 | 0.01 | 0.00 | 50 | 1007.9 |
| 20260505074200 | 68 | 171 | 0.0 | 2.0 | 0.00 | 0.01 | 0.00 | 51 | 1007.9 |
| 20260505073703 | 67 | 24 | 0.0 | 3.0 | 0.00 | 0.01 | 0.00 | 52 | 1007.9 |
| 20260505073201 | 67 | 132 | 1.0 | 3.0 | 0.00 | 0.01 | 0.00 | 51 | 1007.9 |
| 20260505072658 | 67 | 140 | 2.0 | 3.0 | 0.00 | 0.01 | 0.00 | 52 | 1008.3 |
| 20260505072201 | 67 | 21 | 1.0 | 3.0 | 0.00 | 0.01 | 0.00 | 54 | 1008.3 |
| 20260505071658 | 66 | 118 | 0.0 | 3.0 | 0.00 | 0.01 | 0.00 | 57 | 1008.3 |
| 20260505071158 | 64 | 167 | 1.0 | 3.0 | 0.00 | 0.01 | 0.00 | 59 | 1008.3 |
| 20260505070658 | 64 | 338 | 2.0 | 3.0 | 0.00 | 0.01 | 0.00 | 59 | 1008.3 |
| 20260505070158 | 63 | 14 | 0.0 | 3.0 | 0.00 | 0.01 | 0.00 | 61 | 1008.3 |
| 20260505065701 | 64 | 220 | 0.0 | 3.0 | 0.00 | 0.01 | 0.00 | 61 | 1008.3 |
| 20260505065158 | 63 | 343 | 1.0 | 3.0 | 0.00 | 0.01 | 0.00 | 62 | 1008.3 |
| 20260505064701 | 63 | 352 | 0.0 | 3.0 | 0.00 | 0.01 | 0.00 | 64 | 1008.3 |
| 20260505064158 | 61 | 341 | 1.0 | 3.0 | 0.00 | 0.01 | 0.00 | 65 | 1008.3 |
| 20260505063704 | 61 | 347 | 1.0 | 3.0 | 0.00 | 0.01 | 0.00 | 65 | 1008.3 |
| 20260505063158 | 61 | 17 | 1.0 | 4.0 | 0.00 | 0.01 | 0.00 | 66 | 1008.3 |
| 20260505062659 | 62 | 305 | 0.0 | 2.0 | 0.00 | 0.01 | 0.00 | 65 | 1008.3 |
| 20260505062201 | 61 | 333 | 1.0 | 3.0 | 0.00 | 0.01 | 0.00 | 66 | 1008.3 |
| 20260505061658 | 61 | 38 | 1.0 | 3.0 | 0.00 | 0.01 | 0.00 | 66 | 1008.3 |
| 20260505061158 | 61 | 3 | 1.0 | 3.0 | 0.00 | 0.01 | 0.00 | 66 | 1008.3 |
| 20260505060701 | 61 | 358 | 1.0 | 4.0 | 0.00 | 0.01 | 0.00 | 66 | 1008.3 |
| 20260505060201 | 61 | 12 | 1.0 | 3.0 | 0.00 | 0.01 | 0.00 | 66 | 1008.3 |
| 20260505055658 | 61 | 236 | 1.0 | 2.0 | 0.00 | 0.01 | 0.00 | 68 | 1008.3 |
| 20260505055204 | 60 | 54 | 0.0 | 2.0 | 0.00 | 0.01 | 0.00 | 68 | 1008.3 |
| 20260505054658 | 60 | 303 | 0.0 | 2.0 | 0.00 | 0.01 | 0.00 | 69 | 1008.3 |
| 20260505054201 | 60 | 217 | 0.0 | 1.0 | 0.00 | 0.01 | 0.00 | 69 | 1008.3 |
| 20260505053658 | 60 | 265 | 0.0 | 3.0 | 0.00 | 0.01 | 0.00 | 70 | 1008.3 |
| 20260505053207 | 60 | 300 | 1.0 | 3.0 | 0.00 | 0.01 | 0.00 | 70 | 1008.3 |
| 20260505052658 | 59 | 197 | 1.0 | 2.0 | 0.00 | 0.01 | 0.00 | 74 | 1008.3 |
| 20260505052201 | 58 | 322 | 0.0 | 3.0 | 0.00 | 0.01 | 0.00 | 76 | 1008.3 |
| 20260505051657 | 57 | 323 | 2.0 | 4.0 | 0.00 | 0.01 | 0.00 | 76 | 1008.3 |
| 20260505051158 | 57 | 324 | 2.0 | 4.0 | 0.00 | 0.01 | 0.00 | 77 | 1008.3 |
| 20260505050707 | 57 | 306 | 1.0 | 3.0 | 0.00 | 0.01 | 0.00 | 77 | 1008.3 |
| 20260505050201 | 57 | 285 | 0.0 | 3.0 | 0.00 | 0.01 | 0.00 | 78 | 1008.3 |
| 20260505041701 | 57 | 291 | 2.0 | 6.0 | 0.00 | 0.01 | 0.00 | 77 | 1008.3 |
| 20260505041204 | 58 | 312 | 1.0 | 6.0 | 0.00 | 0.01 | 0.00 | 77 | 1008.3 |
| 20260505040658 | 58 | 327 | 2.0 | 8.0 | 0.00 | 0.01 | 0.00 | 77 | 1008.3 |
| 20260505040207 | 58 | 334 | 1.0 | 4.0 | 0.00 | 0.01 | 0.00 | 77 | 1008.7 |
| 20260505035658 | 58 | 317 | 2.0 | 4.0 | 0.00 | 0.01 | 0.00 | 77 | 1008.7 |
| 20260505035158 | 58 | 307 | 2.0 | 6.0 | 0.00 | 0.01 | 0.00 | 77 | 1008.7 |
| 20260505034700 | 58 | 313 | 2.0 | 5.0 | 0.00 | 0.01 | 0.00 | 76 | 1008.7 |
| 20260505034158 | 58 | 315 | 2.0 | 4.0 | 0.00 | 0.01 | 0.00 | 76 | 1008.7 |
| 20260505033704 | 58 | 309 | 2.0 | 5.0 | 0.00 | 0.01 | 0.00 | 75 | 1008.7 |
| 20260505033158 | 58 | 308 | 2.0 | 5.0 | 0.00 | 0.01 | 0.00 | 75 | 1008.7 |
| 20260505032701 | 58 | 327 | 2.0 | 5.0 | 0.00 | 0.01 | 0.00 | 75 | 1008.7 |
| 20260505032158 | 58 | 324 | 1.0 | 4.0 | 0.00 | 0.01 | 0.00 | 76 | 1008.7 |
| 20260505031706 | 58 | 336 | 1.0 | 3.0 | 0.00 | 0.01 | 0.00 | 77 | 1008.7 |
| 20260505031158 | 58 | 254 | 0.0 | 3.0 | 0.00 | 0.01 | 0.00 | 77 | 1008.7 |
| 20260505030658 | 58 | 288 | 2.0 | 3.0 | 0.00 | 0.01 | 0.00 | 77 | 1008.7 |
| 20260505030157 | 58 | 322 | 1.0 | 3.0 | 0.00 | 0.01 | 0.00 | 78 | 1008.7 |
| 20260505025704 | 58 | 319 | 1.0 | 3.0 | 0.00 | 0.01 | 0.00 | 77 | 1008.7 |
| 20260505025201 | 58 | 333 | 1.0 | 3.0 | 0.00 | 0.01 | 0.00 | 77 | 1009.0 |
| 20260505024701 | 58 | 252 | 0.0 | 3.0 | 0.00 | 0.01 | 0.00 | 78 | 1009.0 |
| 20260505024158 | 58 | 241 | 2.0 | 4.0 | 0.00 | 0.01 | 0.00 | 77 | 1009.0 |
| 20260505023701 | 58 | 213 | 0.0 | 3.0 | 0.00 | 0.01 | 0.00 | 77 | 1009.0 |
| 20260505023158 | 58 | 294 | 0.0 | 3.0 | 0.00 | 0.01 | 0.00 | 77 | 1009.0 |
| 20260505022707 | 58 | 261 | 1.0 | 3.0 | 0.00 | 0.01 | 0.00 | 77 | 1009.0 |
| 20260505022158 | 58 | 324 | 2.0 | 6.0 | 0.00 | 0.01 | 0.00 | 76 | 1009.3 |
| 20260505021658 | 58 | 316 | 2.0 | 5.0 | 0.00 | 0.01 | 0.00 | 76 | 1009.3 |
| 20260505021158 | 58 | 313 | 2.0 | 5.0 | 0.00 | 0.01 | 0.00 | 76 | 1009.3 |
| 20260505020701 | 59 | 296 | 2.0 | 7.0 | 0.00 | 0.01 | 0.00 | 75 | 1009.7 |
| 20260505020158 | 59 | 314 | 2.0 | 6.0 | 0.00 | 0.01 | 0.00 | 74 | 1009.7 |
| 20260505015658 | 59 | 312 | 2.0 | 6.0 | 0.01 | 0.01 | 0.00 | 74 | 1009.7 |
| 20260505015204 | 59 | 312 | 2.0 | 5.0 | 0.01 | 0.01 | 0.00 | 74 | 1009.7 |
| 20260505014704 | 59 | 315 | 1.0 | 5.0 | 0.01 | 0.01 | 0.00 | 74 | 1009.7 |
| 20260505014201 | 59 | 308 | 2.0 | 5.0 | 0.01 | 0.01 | 0.00 | 73 | 1009.7 |
| 20260505013701 | 59 | 260 | 1.0 | 4.0 | 0.01 | 0.01 | 0.00 | 73 | 1009.7 |
| 20260505013158 | 60 | 303 | 1.0 | 6.0 | 0.01 | 0.01 | 0.00 | 72 | 1009.7 |
| 20260505012657 | 60 | 299 | 2.0 | 5.0 | 0.01 | 0.01 | 0.00 | 71 | 1009.7 |
| 20260505012158 | 60 | 322 | 1.0 | 3.0 | 0.01 | 0.01 | 0.00 | 71 | 1009.7 |
| 20260505011658 | 60 | 286 | 1.0 | 3.0 | 0.01 | 0.01 | 0.00 | 70 | 1009.7 |
| 20260505011158 | 61 | 310 | 1.0 | 4.0 | 0.00 | 0.00 | 0.00 | 69 | 1009.7 |
| 20260505010704 | 61 | 323 | 2.0 | 5.0 | 0.00 | 0.00 | 0.00 | 67 | 1009.7 |
| 20260505010158 | 61 | 314 | 0.0 | 4.0 | 0.00 | 0.00 | 0.00 | 66 | 1009.7 |
| 20260505005701 | 62 | 310 | 1.0 | 5.0 | 0.00 | 0.00 | 0.00 | 65 | 1009.7 |
| 20260505005158 | 62 | 303 | 1.0 | 2.0 | 0.00 | 0.00 | 0.00 | 64 | 1009.7 |
| 20260505004701 | 62 | 292 | 1.0 | 4.0 | 0.00 | 0.00 | 0.00 | 62 | 1009.7 |
| 20260505004204 | 62 | 300 | 2.0 | 5.0 | 0.00 | 0.00 | 0.00 | 61 | 1009.7 |
| 20260505003704 | 62 | 322 | 1.0 | 6.0 | 0.00 | 0.00 | 0.00 | 61 | 1009.7 |
| 20260505003158 | 62 | 310 | 3.0 | 5.0 | 0.00 | 0.00 | 0.00 | 61 | 1009.7 |
| 20260505002704 | 62 | 287 | 1.0 | 4.0 | 0.00 | 0.00 | 0.00 | 61 | 1009.7 |
| 20260505002201 | 62 | 302 | 2.0 | 4.0 | 0.00 | 0.00 | 0.00 | 61 | 1009.7 |
| 20260505001658 | 62 | 311 | 1.0 | 7.0 | 0.00 | 0.00 | 0.00 | 61 | 1009.7 |
| 20260505001157 | 62 | 319 | 1.0 | 4.0 | 0.00 | 0.00 | 0.00 | 61 | 1010.0 |
| 20260505000704 | 62 | 303 | 1.0 | 4.0 | 0.00 | 0.00 | 0.00 | 61 | 1010.0 |
| 20260505000204 | 62 | 312 | 1.0 | 3.0 | 0.00 | 0.00 | 0.00 | 61 | 1010.0 |
| 20260504235701 | 62 | 291 | 1.0 | 5.0 | 0.00 | 0.00 | 0.00 | 61 | 1010.0 |
| 20260504235158 | 62 | 281 | 2.0 | 5.0 | 0.00 | 0.00 | 0.00 | 61 | 1010.0 |